Wetterdaten: Samstag, 10.11.2018
Datum Zeit Temp. I. Temp. A. Boden 5 cm Feuchte A. Sonne Luftdruck Regen Wind Sonnenschein Zeit Regen
10.11.2018 00:00 21,6 C 9,4 C 10,5 C 85 % 2 % 1017 hPa 0,0 l/m 5,4 km/h (1 Bft) 0 min 0 min
10.11.2018 00:03 21,6 C 9,4 C 10,5 C 85 % 2 % 1017 hPa 0,0 l/m 5,4 km/h (1 Bft) 0 min 0 min
10.11.2018 00:06 21,6 C 9,4 C 10,5 C 85 % 2 % 1017 hPa 0,0 l/m 4,5 km/h (1 Bft) 0 min 0 min
10.11.2018 00:09 21,6 C 9,4 C 10,4 C 85 % 2 % 1017 hPa 0,0 l/m 5,9 km/h (2 Bft) 0 min 0 min
10.11.2018 00:12 21,6 C 9,4 C 10,4 C 85 % 2 % 1017 hPa 0,0 l/m 8,8 km/h (2 Bft) 0 min 0 min
10.11.2018 00:15 21,6 C 9,4 C 10,4 C 85 % 2 % 1017 hPa 0,0 l/m 10,8 km/h (2 Bft) 0 min 0 min
10.11.2018 00:18 21,6 C 9,3 C 10,5 C 85 % 2 % 1017 hPa 0,0 l/m 8,7 km/h (2 Bft) 0 min 0 min
10.11.2018 00:21 21,6 C 9,3 C 10,5 C 85 % 2 % 1017 hPa 0,0 l/m 7,2 km/h (2 Bft) 0 min 0 min
10.11.2018 00:24 21,6 C 9,3 C 10,5 C 86 % 2 % 1017 hPa 0,0 l/m 8,7 km/h (2 Bft) 0 min 0 min
10.11.2018 00:27 21,6 C 9,3 C 10,4 C 85 % 2 % 1016 hPa 0,0 l/m 8,5 km/h (2 Bft) 0 min 0 min
10.11.2018 00:30 21,6 C 9,3 C 10,4 C 86 % 2 % 1016 hPa 0,0 l/m 9,5 km/h (2 Bft) 0 min 0 min
10.11.2018 00:33 21,6 C 9,3 C 10,4 C 86 % 2 % 1016 hPa 0,0 l/m 9,2 km/h (2 Bft) 0 min 0 min
10.11.2018 00:36 21,6 C 9,2 C 10,5 C 85 % 2 % 1016 hPa 0,0 l/m 9,2 km/h (2 Bft) 0 min 0 min
10.11.2018 00:39 21,6 C 9,3 C 10,4 C 86 % 2 % 1016 hPa 0,0 l/m 5,6 km/h (1 Bft) 0 min 0 min
10.11.2018 00:42 21,6 C 9,2 C 10,4 C 85 % 2 % 1016 hPa 0,0 l/m 3,9 km/h (1 Bft) 0 min 0 min
10.11.2018 00:45 21,6 C 9,2 C 10,4 C 85 % 2 % 1016 hPa 0,0 l/m 11,0 km/h (2 Bft) 0 min 0 min
10.11.2018 00:50 21,6 C 9,2 C 10,4 C 85 % 2 % 1016 hPa 0,0 l/m 9,8 km/h (2 Bft) 0 min 0 min
10.11.2018 00:53 21,6 C 9,2 C 10,4 C 85 % 2 % 1016 hPa 0,0 l/m 9,6 km/h (2 Bft) 0 min 0 min
10.11.2018 00:56 21,6 C 9,2 C 10,4 C 85 % 2 % 1016 hPa 0,0 l/m 10,7 km/h (2 Bft) 0 min 0 min
10.11.2018 00:59 21,6 C 9,2 C 10,4 C 85 % 2 % 1016 hPa 0,0 l/m 11,8 km/h (2 Bft) 0 min 0 min
10.11.2018 01:02 21,6 C 9,2 C 10,4 C 85 % 2 % 1016 hPa 0,0 l/m 8,4 km/h (2 Bft) 0 min 0 min
10.11.2018 01:05 21,6 C 9,2 C 10,4 C 85 % 2 % 1016 hPa 0,0 l/m 8,4 km/h (2 Bft) 0 min 0 min
10.11.2018 01:08 21,6 C 9,2 C 10,4 C 86 % 2 % 1016 hPa 0,0 l/m 9,9 km/h (2 Bft) 0 min 0 min
10.11.2018 01:11 21,6 C 9,1 C 10,3 C 86 % 2 % 1016 hPa 0,0 l/m 4,6 km/h (1 Bft) 0 min 0 min
10.11.2018 01:14 21,6 C 9,1 C 10,3 C 86 % 2 % 1016 hPa 0,0 l/m 4,6 km/h (1 Bft) 0 min 0 min
10.11.2018 01:17 21,6 C 9,1 C 10,4 C 86 % 2 % 1016 hPa 0,0 l/m 5,6 km/h (1 Bft) 0 min 0 min
10.11.2018 01:21 21,6 C 9,1 C 10,3 C 86 % 2 % 1016 hPa 0,0 l/m 5,8 km/h (2 Bft) 0 min 0 min
10.11.2018 01:24 21,6 C 9,1 C 10,3 C 86 % 2 % 1016 hPa 0,0 l/m 8,4 km/h (2 Bft) 0 min 0 min
10.11.2018 01:27 21,6 C 9,1 C 10,3 C 86 % 2 % 1016 hPa 0,0 l/m 11,4 km/h (2 Bft) 0 min 0 min
10.11.2018 01:30 21,6 C 9,1 C 10,2 C 86 % 2 % 1016 hPa 0,0 l/m 11,3 km/h (2 Bft) 0 min 0 min
10.11.2018 01:33 21,6 C 9,1 C 10,3 C 86 % 2 % 1016 hPa 0,0 l/m 10,8 km/h (2 Bft) 0 min 0 min
10.11.2018 01:36 21,6 C 9,1 C 10,3 C 86 % 2 % 1016 hPa 0,0 l/m 5,6 km/h (1 Bft) 0 min 0 min
10.11.2018 01:39 21,6 C 9,1 C 10,3 C 86 % 2 % 1016 hPa 0,0 l/m 6,2 km/h (2 Bft) 0 min 0 min
10.11.2018 01:42 21,6 C 9,1 C 10,3 C 86 % 2 % 1016 hPa 0,0 l/m 9,1 km/h (2 Bft) 0 min 0 min
10.11.2018 01:45 21,6 C 9,1 C 10,3 C 86 % 2 % 1016 hPa 0,0 l/m 6,9 km/h (2 Bft) 0 min 0 min
10.11.2018 01:48 21,6 C 9,1 C 10,3 C 87 % 2 % 1016 hPa 0,0 l/m 7,6 km/h (2 Bft) 0 min 0 min
10.11.2018 01:51 21,6 C 9,1 C 10,3 C 87 % 2 % 1016 hPa 0,0 l/m 7,6 km/h (2 Bft) 0 min 0 min
10.11.2018 01:54 21,6 C 9,1 C 10,3 C 87 % 2 % 1016 hPa 0,0 l/m 9,3 km/h (2 Bft) 0 min 0 min
10.11.2018 01:57 21,6 C 9,1 C 10,2 C 87 % 2 % 1016 hPa 0,0 l/m 11,2 km/h (2 Bft) 0 min 0 min
10.11.2018 02:00 21,6 C 9,1 C 10,3 C 87 % 2 % 1016 hPa 0,0 l/m 11,8 km/h (2 Bft) 0 min 0 min
10.11.2018 02:03 21,6 C 9,1 C 10,3 C 87 % 2 % 1016 hPa 0,0 l/m 11,8 km/h (2 Bft) 0 min 0 min
10.11.2018 02:06 21,6 C 9,1 C 10,3 C 87 % 2 % 1016 hPa 0,0 l/m 4,8 km/h (1 Bft) 0 min 0 min
10.11.2018 02:09 21,6 C 9,0 C 10,3 C 87 % 2 % 1016 hPa 0,0 l/m 8,9 km/h (2 Bft) 0 min 0 min
10.11.2018 02:12 21,6 C 9,0 C 10,3 C 87 % 2 % 1016 hPa 0,0 l/m 8,9 km/h (2 Bft) 0 min 0 min
10.11.2018 02:15 21,6 C 9,0 C 10,3 C 87 % 2 % 1016 hPa 0,0 l/m 7,7 km/h (2 Bft) 0 min 0 min
10.11.2018 02:18 21,6 C 9,0 C 10,3 C 87 % 2 % 1016 hPa 0,0 l/m 7,6 km/h (2 Bft) 0 min 0 min
10.11.2018 02:21 21,6 C 9,0 C 10,3 C 87 % 2 % 1016 hPa 0,0 l/m 6,4 km/h (2 Bft) 0 min 0 min
10.11.2018 02:24 21,6 C 9,0 C 10,3 C 87 % 2 % 1016 hPa 0,0 l/m 6,9 km/h (2 Bft) 0 min 0 min
10.11.2018 02:27 21,6 C 9,0 C 10,2 C 87 % 2 % 1016 hPa 0,0 l/m 8,9 km/h (2 Bft) 0 min 0 min
10.11.2018 02:30 21,6 C 9,0 C 10,3 C 87 % 2 % 1016 hPa 0,0 l/m 9,0 km/h (2 Bft) 0 min 0 min
10.11.2018 02:33 21,6 C 9,0 C 10,2 C 87 % 2 % 1016 hPa 0,0 l/m 7,3 km/h (2 Bft) 0 min 0 min
10.11.2018 02:36 21,6 C 9,0 C 10,2 C 87 % 2 % 1016 hPa 0,0 l/m 7,4 km/h (2 Bft) 0 min 0 min
10.11.2018 02:39 21,6 C 9,0 C 10,2 C 87 % 2 % 1016 hPa 0,0 l/m 10,3 km/h (2 Bft) 0 min 0 min
10.11.2018 02:42 21,6 C 9,0 C 10,2 C 87 % 2 % 1016 hPa 0,0 l/m 12,0 km/h (2 Bft) 0 min 0 min
10.11.2018 02:45 21,6 C 9,0 C 10,2 C 87 % 2 % 1015 hPa 0,0 l/m 12,0 km/h (2 Bft) 0 min 0 min
10.11.2018 02:48 21,6 C 9,0 C 10,2 C 87 % 2 % 1015 hPa 0,0 l/m 10,1 km/h (2 Bft) 0 min 0 min
10.11.2018 02:51 21,6 C 9,0 C 10,2 C 87 % 2 % 1015 hPa 0,0 l/m 10,1 km/h (2 Bft) 0 min 0 min
10.11.2018 02:54 21,6 C 9,0 C 10,2 C 87 % 2 % 1015 hPa 0,0 l/m 11,0 km/h (2 Bft) 0 min 0 min
10.11.2018 02:57 21,6 C 9,0 C 10,2 C 87 % 2 % 1015 hPa 0,0 l/m 7,5 km/h (2 Bft) 0 min 0 min
10.11.2018 03:00 21,6 C 9,0 C 10,2 C 87 % 2 % 1015 hPa 0,0 l/m 6,1 km/h (2 Bft) 0 min 0 min
10.11.2018 03:03 21,6 C 9,0 C 10,2 C 87 % 2 % 1015 hPa 0,0 l/m 6,1 km/h (2 Bft) 0 min 0 min
10.11.2018 03:06 21,6 C 9,0 C 10,2 C 87 % 2 % 1015 hPa 0,0 l/m 7,9 km/h (2 Bft) 0 min 0 min
10.11.2018 03:09 21,6 C 9,0 C 10,2 C 87 % 2 % 1015 hPa 0,0 l/m 7,3 km/h (2 Bft) 0 min 0 min
10.11.2018 03:12 21,6 C 9,0 C 10,2 C 87 % 2 % 1015 hPa 0,0 l/m 8,7 km/h (2 Bft) 0 min 0 min
10.11.2018 03:15 21,6 C 9,0 C 10,2 C 87 % 2 % 1015 hPa 0,0 l/m 6,7 km/h (2 Bft) 0 min 0 min
10.11.2018 03:18 21,6 C 9,0 C 10,2 C 87 % 2 % 1015 hPa 0,0 l/m 9,5 km/h (2 Bft) 0 min 0 min
10.11.2018 03:21 21,6 C 9,0 C 10,2 C 87 % 2 % 1015 hPa 0,0 l/m 5,4 km/h (1 Bft) 0 min 0 min
10.11.2018 03:24 21,6 C 9,0 C 10,2 C 87 % 2 % 1015 hPa 0,0 l/m 4,4 km/h (1 Bft) 0 min 0 min
10.11.2018 03:27 21,6 C 9,0 C 10,2 C 87 % 2 % 1015 hPa 0,0 l/m 5,2 km/h (1 Bft) 0 min 0 min
10.11.2018 03:30 21,6 C 9,0 C 10,2 C 87 % 2 % 1015 hPa 0,0 l/m 6,8 km/h (2 Bft) 0 min 0 min
10.11.2018 03:33 21,7 C 9,0 C 10,2 C 87 % 2 % 1015 hPa 0,0 l/m 4,2 km/h (1 Bft) 0 min 0 min
10.11.2018 03:36 21,6 C 9,0 C 10,2 C 87 % 2 % 1015 hPa 0,0 l/m 10,3 km/h (2 Bft) 0 min 0 min
10.11.2018 03:39 21,6 C 9,0 C 10,2 C 87 % 2 % 1015 hPa 0,0 l/m 7,4 km/h (2 Bft) 0 min 0 min
10.11.2018 03:42 21,6 C 9,0 C 10,2 C 87 % 2 % 1015 hPa 0,0 l/m 5,7 km/h (1 Bft) 0 min 0 min
10.11.2018 03:45 21,7 C 9,0 C 10,2 C 87 % 2 % 1015 hPa 0,0 l/m 6,3 km/h (2 Bft) 0 min 0 min
10.11.2018 03:48 21,6 C 9,0 C 10,2 C 87 % 2 % 1015 hPa 0,0 l/m 6,3 km/h (2 Bft) 0 min 0 min
10.11.2018 03:51 21,6 C 9,0 C 10,2 C 87 % 2 % 1015 hPa 0,0 l/m 5,6 km/h (1 Bft) 0 min 0 min
10.11.2018 03:54 21,6 C 9,0 C 10,2 C 87 % 2 % 1015 hPa 0,0 l/m 9,7 km/h (2 Bft) 0 min 0 min
10.11.2018 03:57 21,6 C 9,0 C 10,2 C 87 % 2 % 1015 hPa 0,0 l/m 8,5 km/h (2 Bft) 0 min 0 min
10.11.2018 04:00 21,6 C 9,0 C 10,2 C 87 % 2 % 1015 hPa 0,0 l/m 5,7 km/h (1 Bft) 0 min 0 min
10.11.2018 04:03 21,6 C 9,0 C 10,2 C 87 % 2 % 1015 hPa 0,0 l/m 5,7 km/h (1 Bft) 0 min 0 min
10.11.2018 04:06 21,6 C 9,0 C 10,2 C 87 % 2 % 1015 hPa 0,0 l/m 5,2 km/h (1 Bft) 0 min 0 min
10.11.2018 04:09 21,6 C 9,0 C 10,2 C 87 % 2 % 1015 hPa 0,0 l/m 2,5 km/h (1 Bft) 0 min 0 min
10.11.2018 04:12 21,6 C 9,0 C 10,2 C 87 % 2 % 1015 hPa 0,0 l/m 6,2 km/h (2 Bft) 0 min 0 min
10.11.2018 04:15 21,6 C 9,0 C 10,2 C 87 % 2 % 1015 hPa 0,0 l/m 11,8 km/h (2 Bft) 0 min 0 min
10.11.2018 04:18 21,6 C 9,0 C 10,2 C 87 % 2 % 1015 hPa 0,0 l/m 11,8 km/h (2 Bft) 0 min 0 min
10.11.2018 04:21 21,7 C 9,0 C 10,2 C 87 % 2 % 1015 hPa 0,0 l/m 5,4 km/h (1 Bft) 0 min 0 min
10.11.2018 04:24 21,6 C 9,0 C 10,2 C 87 % 2 % 1015 hPa 0,0 l/m 4,0 km/h (1 Bft) 0 min 0 min
10.11.2018 04:27 21,7 C 9,0 C 10,2 C 87 % 2 % 1015 hPa 0,0 l/m 4,8 km/h (1 Bft) 0 min 0 min
10.11.2018 04:30 21,7 C 9,0 C 10,2 C 87 % 2 % 1015 hPa 0,0 l/m 4,8 km/h (1 Bft) 0 min 0 min
10.11.2018 04:33 21,6 C 9,0 C 10,2 C 87 % 2 % 1015 hPa 0,0 l/m 5,0 km/h (1 Bft) 0 min 0 min
10.11.2018 04:36 21,6 C 9,0 C 10,2 C 87 % 2 % 1015 hPa 0,0 l/m 5,6 km/h (1 Bft) 0 min 0 min
10.11.2018 04:39 21,6 C 9,0 C 10,2 C 87 % 2 % 1015 hPa 0,0 l/m 2,9 km/h (1 Bft) 0 min 0 min
10.11.2018 04:42 21,6 C 9,0 C 10,2 C 87 % 2 % 1015 hPa 0,0 l/m 1,8 km/h (1 Bft) 0 min 0 min
10.11.2018 04:45 21,6 C 9,1 C 10,2 C 87 % 2 % 1015 hPa 0,0 l/m 3,7 km/h (1 Bft) 0 min 0 min
10.11.2018 04:48 21,6 C 9,1 C 10,2 C 87 % 2 % 1015 hPa 0,0 l/m 6,4 km/h (2 Bft) 0 min 0 min
10.11.2018 04:51 21,7 C 9,1 C 10,2 C 87 % 2 % 1015 hPa 0,0 l/m 4,8 km/h (1 Bft) 0 min 0 min
10.11.2018 04:54 21,7 C 9,1 C 10,1 C 87 % 2 % 1015 hPa 0,0 l/m 8,3 km/h (2 Bft) 0 min 0 min
10.11.2018 04:57 21,7 C 9,1 C 10,1 C 87 % 2 % 1015 hPa 0,0 l/m 8,7 km/h (2 Bft) 0 min 0 min
10.11.2018 05:00 21,7 C 9,1 C 10,2 C 87 % 2 % 1015 hPa 0,0 l/m 3,9 km/h (1 Bft) 0 min 0 min
10.11.2018 05:03 21,6 C 9,1 C 10,2 C 87 % 2 % 1015 hPa 0,0 l/m 5,4 km/h (1 Bft) 0 min 0 min
10.11.2018 05:06 21,7 C 9,1 C 10,2 C 87 % 2 % 1015 hPa 0,0 l/m 6,7 km/h (2 Bft) 0 min 0 min
10.11.2018 05:09 21,7 C 9,1 C 10,2 C 87 % 2 % 1015 hPa 0,0 l/m 5,1 km/h (1 Bft) 0 min 0 min
10.11.2018 05:12 21,7 C 9,1 C 10,1 C 87 % 2 % 1015 hPa 0,0 l/m 5,1 km/h (1 Bft) 0 min 0 min
10.11.2018 05:15 21,6 C 9,1 C 10,1 C 87 % 2 % 1015 hPa 0,0 l/m 6,8 km/h (2 Bft) 0 min 0 min
10.11.2018 05:18 21,6 C 9,1 C 10,1 C 87 % 2 % 1015 hPa 0,0 l/m 5,4 km/h (1 Bft) 0 min 0 min
10.11.2018 05:21 21,7 C 9,1 C 10,2 C 87 % 2 % 1015 hPa 0,0 l/m 3,9 km/h (1 Bft) 0 min 0 min
10.11.2018 05:24 21,7 C 9,1 C 10,1 C 87 % 2 % 1015 hPa 0,0 l/m 5,3 km/h (1 Bft) 0 min 0 min
10.11.2018 05:27 21,6 C 9,1 C 10,1 C 87 % 2 % 1015 hPa 0,0 l/m 5,0 km/h (1 Bft) 0 min 0 min
10.11.2018 05:30 21,7 C 9,1 C 10,1 C 87 % 2 % 1015 hPa 0,0 l/m 7,1 km/h (2 Bft) 0 min 0 min
10.11.2018 05:33 21,7 C 9,1 C 10,1 C 87 % 2 % 1015 hPa 0,0 l/m 6,9 km/h (2 Bft) 0 min 0 min
10.11.2018 05:36 21,7 C 9,1 C 10,1 C 87 % 2 % 1015 hPa 0,0 l/m 1,2 km/h (1 Bft) 0 min 0 min
10.11.2018 05:39 21,7 C 9,1 C 10,1 C 87 % 2 % 1015 hPa 0,0 l/m 4,5 km/h (1 Bft) 0 min 0 min
10.11.2018 05:42 21,7 C 9,1 C 10,1 C 87 % 2 % 1015 hPa 0,0 l/m 2,5 km/h (1 Bft) 0 min 0 min
10.11.2018 05:45 21,7 C 9,1 C 10,1 C 87 % 2 % 1015 hPa 0,0 l/m 2,8 km/h (1 Bft) 0 min 0 min
10.11.2018 05:48 21,6 C 9,1 C 10,1 C 87 % 2 % 1015 hPa 0,0 l/m 3,6 km/h (1 Bft) 0 min 0 min
10.11.2018 05:51 21,7 C 9,1 C 10,2 C 87 % 2 % 1015 hPa 0,0 l/m 5,4 km/h (1 Bft) 0 min 0 min
10.11.2018 05:54 21,7 C 9,0 C 10,2 C 87 % 2 % 1015 hPa 0,0 l/m 4,3 km/h (1 Bft) 0 min 0 min
10.11.2018 05:57 21,7 C 9,0 C 10,1 C 87 % 2 % 1015 hPa 0,0 l/m 2,5 km/h (1 Bft) 0 min 0 min
10.11.2018 06:00 21,7 C 9,0 C 10,1 C 87 % 2 % 1015 hPa 0,0 l/m 3,6 km/h (1 Bft) 0 min 0 min
10.11.2018 06:03 21,6 C 9,0 C 10,1 C 87 % 2 % 1015 hPa 0,0 l/m 5,4 km/h (1 Bft) 0 min 0 min
10.11.2018 06:06 21,7 C 9,0 C 10,1 C 87 % 2 % 1015 hPa 0,0 l/m 2,4 km/h (1 Bft) 0 min 0 min
10.11.2018 06:09 21,7 C 9,0 C 10,1 C 87 % 2 % 1014 hPa 0,0 l/m 4,3 km/h (1 Bft) 0 min 0 min
10.11.2018 06:12 21,7 C 9,0 C 10,1 C 87 % 2 % 1014 hPa 0,0 l/m 3,3 km/h (1 Bft) 0 min 0 min
10.11.2018 06:15 21,7 C 9,0 C 10,1 C 87 % 2 % 1015 hPa 0,0 l/m 3,3 km/h (1 Bft) 0 min 0 min
10.11.2018 06:18 21,7 C 9,0 C 10,1 C 87 % 2 % 1014 hPa 0,0 l/m 3,3 km/h (1 Bft) 0 min 0 min
10.11.2018 06:21 21,7 C 9,0 C 10,0 C 87 % 2 % 1014 hPa 0,0 l/m 5,4 km/h (1 Bft) 0 min 0 min
10.11.2018 06:24 21,7 C 9,0 C 10,1 C 87 % 2 % 1015 hPa 0,0 l/m 5,8 km/h (2 Bft) 0 min 0 min
10.11.2018 06:27 21,7 C 9,0 C 10,1 C 87 % 2 % 1015 hPa 0,0 l/m 4,0 km/h (1 Bft) 0 min 0 min
10.11.2018 06:30 21,7 C 9,0 C 10,1 C 87 % 2 % 1015 hPa 0,0 l/m 4,8 km/h (1 Bft) 0 min 0 min
10.11.2018 06:33 21,7 C 9,0 C 10,1 C 87 % 2 % 1015 hPa 0,0 l/m 1,5 km/h (1 Bft) 0 min 0 min
10.11.2018 06:36 21,7 C 9,0 C 10,1 C 87 % 2 % 1015 hPa 0,0 l/m 4,8 km/h (1 Bft) 0 min 0 min
10.11.2018 06:39 21,6 C 9,0 C 10,1 C 87 % 2 % 1015 hPa 0,0 l/m 5,9 km/h (2 Bft) 0 min 0 min
10.11.2018 06:42 21,6 C 9,0 C 10,1 C 87 % 2 % 1015 hPa 0,0 l/m 3,2 km/h (1 Bft) 0 min 0 min
10.11.2018 06:45 21,6 C 9,0 C 10,1 C 87 % 2 % 1015 hPa 0,0 l/m 4,8 km/h (1 Bft) 0 min 0 min
10.11.2018 06:48 21,6 C 9,0 C 10,1 C 87 % 2 % 1015 hPa 0,0 l/m 5,0 km/h (1 Bft) 0 min 0 min
10.11.2018 06:51 21,7 C 9,0 C 10,1 C 87 % 2 % 1015 hPa 0,0 l/m 3,8 km/h (1 Bft) 0 min 0 min
10.11.2018 06:54 21,7 C 9,0 C -10,0 C 87 % 2 % 1015 hPa 0,0 l/m 3,6 km/h (1 Bft) 0 min 0 min
10.11.2018 06:57 21,7 C 9,0 C -10,0 C 87 % 2 % 1015 hPa 0,0 l/m 5,6 km/h (1 Bft) 0 min 0 min
10.11.2018 07:00 21,7 C 9,0 C -10,0 C 87 % 2 % 1014 hPa 0,0 l/m 5,6 km/h (1 Bft) 0 min 0 min
10.11.2018 07:03 21,6 C 9,0 C -10,0 C 87 % 2 % 1015 hPa 0,0 l/m 6,9 km/h (2 Bft) 0 min 0 min
10.11.2018 07:06 21,6 C 9,0 C -10,0 C 87 % 2 % 1015 hPa 0,0 l/m 2,4 km/h (1 Bft) 0 min 0 min
10.11.2018 07:09 21,6 C 9,0 C -10,0 C 87 % 3 % 1015 hPa 0,0 l/m 4,6 km/h (1 Bft) 0 min 0 min
10.11.2018 07:12 21,7 C 9,0 C 10,1 C 87 % 3 % 1015 hPa 0,0 l/m 5,2 km/h (1 Bft) 0 min 0 min
10.11.2018 07:15 21,6 C 9,0 C 10,1 C 87 % 3 % 1015 hPa 0,0 l/m 6,1 km/h (2 Bft) 0 min 0 min
10.11.2018 07:18 21,7 C 9,1 C 10,1 C 87 % 3 % 1015 hPa 0,0 l/m 10,3 km/h (2 Bft) 0 min 0 min
10.11.2018 07:21 21,7 C 9,1 C 10,0 C 87 % 3 % 1015 hPa 0,0 l/m 6,1 km/h (2 Bft) 0 min 0 min
10.11.2018 07:24 21,6 C 9,1 C 10,1 C 87 % 3 % 1015 hPa 0,0 l/m 7,5 km/h (2 Bft) 0 min 0 min
10.11.2018 07:27 21,7 C 9,1 C 10,1 C 87 % 3 % 1015 hPa 0,0 l/m 4,8 km/h (1 Bft) 0 min 0 min
10.11.2018 07:30 21,7 C 9,1 C 10,1 C 87 % 3 % 1015 hPa 0,0 l/m 4,1 km/h (1 Bft) 0 min 0 min
10.11.2018 07:33 21,7 C 9,1 C 10,1 C 87 % 3 % 1015 hPa 0,0 l/m 5,3 km/h (1 Bft) 0 min 0 min
10.11.2018 07:36 21,7 C 9,1 C 10,1 C 87 % 3 % 1015 hPa 0,0 l/m 5,3 km/h (1 Bft) 0 min 0 min
10.11.2018 07:39 21,7 C 9,0 C 10,1 C 87 % 4 % 1015 hPa 0,0 l/m 5,4 km/h (1 Bft) 0 min 0 min
10.11.2018 07:42 21,7 C 8,9 C 10,1 C 87 % 4 % 1015 hPa 0,0 l/m 1,2 km/h (1 Bft) 0 min 0 min
10.11.2018 07:45 21,7 C 9,0 C 10,1 C 87 % 4 % 1015 hPa 0,0 l/m 3,6 km/h (1 Bft) 0 min 0 min
10.11.2018 07:48 21,7 C 9,0 C 10,1 C 87 % 4 % 1015 hPa 0,0 l/m 4,5 km/h (1 Bft) 0 min 0 min
10.11.2018 07:51 21,6 C 9,0 C 10,1 C 87 % 4 % 1015 hPa 0,0 l/m 4,1 km/h (1 Bft) 0 min 0 min
10.11.2018 07:54 21,7 C 9,0 C 10,1 C 87 % 5 % 1015 hPa 0,0 l/m 9,2 km/h (2 Bft) 0 min 0 min
10.11.2018 07:57 21,7 C 9,0 C 10,1 C 87 % 5 % 1015 hPa 0,0 l/m 9,2 km/h (2 Bft) 0 min 0 min
10.11.2018 08:00 21,7 C 9,0 C 10,1 C 87 % 5 % 1015 hPa 0,0 l/m 7,7 km/h (2 Bft) 0 min 0 min
10.11.2018 08:03 21,7 C 9,0 C 10,1 C 87 % 5 % 1015 hPa 0,0 l/m 7,8 km/h (2 Bft) 0 min 0 min
10.11.2018 08:06 21,7 C 9,0 C 10,1 C 87 % 5 % 1015 hPa 0,0 l/m 6,7 km/h (2 Bft) 0 min 0 min
10.11.2018 08:09 21,7 C 9,0 C 10,1 C 87 % 5 % 1015 hPa 0,0 l/m 5,6 km/h (1 Bft) 0 min 0 min
10.11.2018 08:12 21,7 C 9,0 C 10,1 C 87 % 6 % 1015 hPa 0,0 l/m 7,1 km/h (2 Bft) 0 min 0 min
10.11.2018 08:15 21,7 C 9,0 C 10,1 C 87 % 6 % 1015 hPa 0,0 l/m 7,0 km/h (2 Bft) 0 min 0 min
10.11.2018 08:18 21,7 C 9,0 C 10,1 C 87 % 6 % 1015 hPa 0,0 l/m 7,0 km/h (2 Bft) 0 min 0 min
10.11.2018 08:21 21,7 C 9,0 C 10,2 C 87 % 6 % 1015 hPa 0,0 l/m 7,9 km/h (2 Bft) 0 min 0 min
10.11.2018 08:24 21,7 C 9,0 C 10,2 C 87 % 6 % 1015 hPa 0,0 l/m 7,9 km/h (2 Bft) 0 min 0 min
10.11.2018 08:27 21,7 C 9,0 C 10,1 C 87 % 6 % 1015 hPa 0,0 l/m 5,6 km/h (1 Bft) 0 min 0 min
10.11.2018 08:30 21,7 C 9,0 C 10,1 C 87 % 6 % 1015 hPa 0,0 l/m 7,4 km/h (2 Bft) 0 min 0 min
10.11.2018 08:33 21,7 C 9,0 C 10,1 C 87 % 7 % 1015 hPa 0,0 l/m 10,1 km/h (2 Bft) 0 min 0 min
10.11.2018 08:36 21,7 C 9,0 C 10,1 C 87 % 7 % 1015 hPa 0,0 l/m 8,4 km/h (2 Bft) 0 min 0 min
10.11.2018 08:39 21,7 C 9,0 C 10,1 C 87 % 7 % 1015 hPa 0,0 l/m 10,8 km/h (2 Bft) 0 min 0 min
10.11.2018 08:42 21,7 C 9,0 C 10,1 C 87 % 7 % 1015 hPa 0,0 l/m 5,2 km/h (1 Bft) 0 min 0 min
10.11.2018 08:45 21,7 C 9,0 C 10,1 C 87 % 7 % 1015 hPa 0,0 l/m 7,5 km/h (2 Bft) 0 min 0 min
10.11.2018 08:48 21,7 C 9,1 C 10,1 C 87 % 9 % 1015 hPa 0,0 l/m 10,0 km/h (2 Bft) 0 min 0 min
10.11.2018 08:51 21,7 C 9,1 C 10,1 C 87 % 9 % 1015 hPa 0,0 l/m 12,5 km/h (3 Bft) 0 min 0 min
10.11.2018 08:54 21,7 C 9,0 C 10,1 C 86 % 9 % 1015 hPa 0,0 l/m 9,4 km/h (2 Bft) 0 min 0 min
10.11.2018 08:57 21,7 C 9,1 C 10,1 C 86 % 9 % 1015 hPa 0,0 l/m 8,4 km/h (2 Bft) 0 min 0 min
10.11.2018 09:00 21,6 C 9,1 C 10,1 C 86 % 9 % 1015 hPa 0,0 l/m 7,9 km/h (2 Bft) 0 min 0 min
10.11.2018 09:03 21,7 C 9,1 C 10,2 C 86 % 9 % 1015 hPa 0,0 l/m 10,1 km/h (2 Bft) 0 min 0 min
10.11.2018 09:06 21,6 C 9,1 C 10,1 C 86 % 9 % 1015 hPa 0,0 l/m 8,1 km/h (2 Bft) 0 min 0 min
10.11.2018 09:09 21,6 C 9,2 C 10,1 C 86 % 9 % 1015 hPa 0,0 l/m 7,0 km/h (2 Bft) 0 min 0 min
10.11.2018 09:12 21,7 C 9,2 C 10,2 C 86 % 9 % 1015 hPa 0,0 l/m 7,6 km/h (2 Bft) 0 min 0 min
10.11.2018 09:15 21,7 C 9,2 C 10,2 C 86 % 10 % 1015 hPa 0,0 l/m 10,6 km/h (2 Bft) 0 min 0 min
10.11.2018 09:18 21,7 C 9,2 C 10,2 C 86 % 10 % 1015 hPa 0,0 l/m 9,2 km/h (2 Bft) 0 min 0 min
10.11.2018 09:21 21,7 C 9,2 C 10,2 C 86 % 10 % 1015 hPa 0,0 l/m 3,3 km/h (1 Bft) 0 min 0 min
10.11.2018 09:24 21,7 C 9,3 C 10,2 C 86 % 9 % 1015 hPa 0,0 l/m 5,1 km/h (1 Bft) 0 min 0 min
10.11.2018 09:27 21,7 C 9,3 C 10,2 C 86 % 10 % 1015 hPa 0,0 l/m 6,4 km/h (2 Bft) 0 min 0 min
10.11.2018 09:30 21,7 C 9,3 C 10,2 C 86 % 10 % 1015 hPa 0,0 l/m 8,9 km/h (2 Bft) 0 min 0 min
10.11.2018 09:33 21,7 C 9,2 C 10,2 C 86 % 10 % 1015 hPa 0,0 l/m 8,5 km/h (2 Bft) 0 min 0 min
10.11.2018 09:36 21,7 C 9,3 C 10,2 C 86 % 11 % 1015 hPa 0,0 l/m 9,5 km/h (2 Bft) 0 min 0 min
10.11.2018 09:39 21,7 C 9,3 C 10,2 C 86 % 12 % 1015 hPa 0,0 l/m 9,0 km/h (2 Bft) 0 min 0 min
10.11.2018 09:42 21,7 C 9,3 C 10,2 C 86 % 13 % 1015 hPa 0,0 l/m 9,0 km/h (2 Bft) 0 min 0 min
10.11.2018 09:45 21,7 C 9,3 C 10,2 C 86 % 13 % 1015 hPa 0,0 l/m 6,2 km/h (2 Bft) 0 min 0 min
10.11.2018 09:48 21,7 C 9,3 C 10,2 C 85 % 11 % 1015 hPa 0,0 l/m 9,2 km/h (2 Bft) 0 min 0 min
10.11.2018 09:51 21,7 C 9,3 C 10,2 C 85 % 11 % 1015 hPa 0,0 l/m 12,3 km/h (3 Bft) 0 min 0 min
10.11.2018 09:54 21,7 C 9,3 C 10,2 C 85 % 11 % 1015 hPa 0,0 l/m 7,0 km/h (2 Bft) 0 min 0 min
10.11.2018 09:57 21,7 C 9,4 C 10,2 C 85 % 11 % 1015 hPa 0,0 l/m 7,0 km/h (2 Bft) 0 min 0 min
10.11.2018 10:00 21,7 C 9,4 C 10,2 C 85 % 11 % 1015 hPa 0,0 l/m 10,1 km/h (2 Bft) 0 min 0 min
10.11.2018 10:03 21,7 C 9,4 C 10,2 C 85 % 11 % 1015 hPa 0,0 l/m 13,1 km/h (3 Bft) 0 min 0 min
10.11.2018 10:06 21,7 C 9,3 C 10,2 C 85 % 11 % 1015 hPa 0,0 l/m 8,5 km/h (2 Bft) 0 min 0 min
10.11.2018 10:09 21,7 C 9,3 C 10,3 C 85 % 12 % 1015 hPa 0,0 l/m 9,1 km/h (2 Bft) 0 min 0 min
10.11.2018 10:12 21,7 C 9,4 C 10,2 C 85 % 12 % 1015 hPa 0,0 l/m 10,0 km/h (2 Bft) 0 min 0 min
10.11.2018 10:15 21,7 C 9,4 C 10,2 C 85 % 14 % 1015 hPa 0,0 l/m 13,6 km/h (3 Bft) 0 min 0 min
10.11.2018 10:18 21,7 C 9,4 C 10,3 C 85 % 14 % 1015 hPa 0,0 l/m 13,6 km/h (3 Bft) 0 min 0 min
10.11.2018 10:21 21,7 C 9,5 C 10,2 C 85 % 14 % 1015 hPa 0,0 l/m 11,4 km/h (2 Bft) 0 min 0 min
10.11.2018 10:24 21,8 C 9,4 C 10,2 C 85 % 14 % 1015 hPa 0,0 l/m 13,1 km/h (3 Bft) 0 min 0 min
10.11.2018 10:27 21,7 C 9,4 C 10,3 C 85 % 13 % 1015 hPa 0,0 l/m 11,9 km/h (2 Bft) 0 min 0 min
10.11.2018 10:30 21,7 C 9,5 C 10,3 C 85 % 13 % 1015 hPa 0,0 l/m 6,8 km/h (2 Bft) 0 min 0 min
10.11.2018 10:33 21,7 C 9,5 C 10,3 C 85 % 13 % 1015 hPa 0,0 l/m 8,3 km/h (2 Bft) 0 min 0 min
10.11.2018 10:36 21,7 C 9,5 C 10,3 C 85 % 13 % 1015 hPa 0,0 l/m 6,7 km/h (2 Bft) 0 min 0 min
10.11.2018 10:39 21,7 C 9,5 C 10,3 C 85 % 14 % 1015 hPa 0,0 l/m 7,4 km/h (2 Bft) 0 min 0 min
10.11.2018 10:42 21,8 C 9,5 C 10,3 C 85 % 14 % 1015 hPa 0,0 l/m 7,1 km/h (2 Bft) 0 min 0 min
10.11.2018 10:45 21,8 C 9,6 C 10,3 C 85 % 14 % 1015 hPa 0,0 l/m 11,5 km/h (2 Bft) 0 min 0 min
10.11.2018 10:48 21,7 C 9,5 C 10,3 C 85 % 15 % 1015 hPa 0,0 l/m 10,5 km/h (2 Bft) 0 min 0 min
10.11.2018 10:51 21,7 C 9,6 C 10,4 C 85 % 15 % 1015 hPa 0,0 l/m 8,1 km/h (2 Bft) 0 min 0 min
10.11.2018 10:54 21,8 C 9,6 C 10,4 C 85 % 15 % 1015 hPa 0,0 l/m 6,3 km/h (2 Bft) 0 min 0 min
10.11.2018 10:57 21,8 C 9,6 C 10,3 C 84 % 16 % 1015 hPa 0,0 l/m 9,2 km/h (2 Bft) 0 min 0 min
10.11.2018 11:00 21,8 C 9,7 C 10,4 C 84 % 18 % 1015 hPa 0,0 l/m 12,7 km/h (3 Bft) 0 min 0 min
10.11.2018 11:03 21,7 C 9,6 C 10,3 C 84 % 18 % 1015 hPa 0,0 l/m 9,8 km/h (2 Bft) 0 min 0 min
10.11.2018 11:06 21,8 C 9,6 C 10,4 C 84 % 19 % 1015 hPa 0,0 l/m 9,4 km/h (2 Bft) 0 min 0 min
10.11.2018 11:09 21,8 C 9,7 C 10,4 C 84 % 18 % 1015 hPa 0,0 l/m 11,3 km/h (2 Bft) 0 min 0 min
10.11.2018 11:12 21,7 C 9,6 C 10,4 C 84 % 18 % 1014 hPa 0,0 l/m 11,6 km/h (2 Bft) 0 min 0 min
10.11.2018 11:15 21,8 C 9,6 C 10,3 C 84 % 16 % 1014 hPa 0,0 l/m 8,7 km/h (2 Bft) 0 min 0 min
10.11.2018 11:18 21,7 C 9,6 C 10,4 C 84 % 16 % 1014 hPa 0,0 l/m 13,6 km/h (3 Bft) 0 min 0 min
10.11.2018 11:21 21,8 C 9,6 C 10,4 C 84 % 17 % 1014 hPa 0,0 l/m 13,6 km/h (3 Bft) 0 min 0 min
10.11.2018 11:24 21,8 C 9,6 C 10,4 C 83 % 17 % 1014 hPa 0,0 l/m 13,2 km/h (3 Bft) 0 min 0 min
10.11.2018 11:27 21,7 C 9,7 C 10,4 C 83 % 17 % 1014 hPa 0,0 l/m 13,2 km/h (3 Bft) 0 min 0 min
10.11.2018 11:30 21,7 C 9,7 C 10,4 C 83 % 17 % 1014 hPa 0,0 l/m 8,4 km/h (2 Bft) 0 min 0 min
10.11.2018 11:33 21,8 C 9,7 C 10,5 C 83 % 18 % 1014 hPa 0,0 l/m 13,5 km/h (3 Bft) 0 min 0 min
10.11.2018 11:36 21,8 C 9,7 C 10,5 C 83 % 17 % 1014 hPa 0,0 l/m 13,1 km/h (3 Bft) 0 min 0 min
10.11.2018 11:39 21,8 C 9,7 C 10,5 C 83 % 17 % 1014 hPa 0,0 l/m 10,1 km/h (2 Bft) 0 min 0 min
10.11.2018 11:42 21,8 C 9,7 C 10,5 C 83 % 17 % 1014 hPa 0,0 l/m 10,1 km/h (2 Bft) 0 min 0 min
10.11.2018 11:45 21,7 C 9,7 C 10,5 C 83 % 17 % 1014 hPa 0,0 l/m 10,5 km/h (2 Bft) 0 min 0 min
10.11.2018 11:48 21,8 C 9,7 C 10,5 C 83 % 17 % 1014 hPa 0,0 l/m 9,5 km/h (2 Bft) 0 min 0 min
10.11.2018 11:51 21,8 C 9,7 C 10,5 C 83 % 17 % 1014 hPa 0,0 l/m 10,3 km/h (2 Bft) 0 min 0 min
10.11.2018 11:54 21,7 C 9,7 C 10,5 C 83 % 18 % 1014 hPa 0,0 l/m 12,6 km/h (3 Bft) 0 min 0 min
10.11.2018 11:57 21,7 C 9,7 C 10,5 C 83 % 18 % 1014 hPa 0,0 l/m 12,5 km/h (3 Bft) 0 min 0 min
10.11.2018 12:00 21,7 C 9,7 C 10,5 C 83 % 18 % 1014 hPa 0,0 l/m 12,5 km/h (3 Bft) 0 min 0 min
10.11.2018 12:03 21,7 C 9,7 C 10,6 C 83 % 19 % 1014 hPa 0,0 l/m 11,1 km/h (2 Bft) 0 min 0 min
10.11.2018 12:06 21,6 C 9,7 C 10,6 C 83 % 19 % 1014 hPa 0,0 l/m 11,8 km/h (2 Bft) 0 min 0 min
10.11.2018 12:09 21,7 C 10,0 C 10,6 C 82 % 19 % 1014 hPa 0,0 l/m 12,4 km/h (3 Bft) 0 min 0 min
10.11.2018 12:12 21,7 C 10,0 C 10,6 C 82 % 20 % 1014 hPa 0,0 l/m 13,3 km/h (3 Bft) 0 min 0 min
10.11.2018 12:15 21,7 C 10,0 C 10,6 C 82 % 21 % 1014 hPa 0,0 l/m 12,8 km/h (3 Bft) 0 min 0 min
10.11.2018 12:18 21,6 C 10,1 C 10,7 C 82 % 21 % 1014 hPa 0,0 l/m 10,7 km/h (2 Bft) 0 min 0 min
10.11.2018 12:21 21,7 C 10,1 C 10,7 C 82 % 21 % 1014 hPa 0,0 l/m 10,8 km/h (2 Bft) 0 min 0 min
10.11.2018 12:24 21,7 C 10,1 C 10,7 C 82 % 21 % 1014 hPa 0,0 l/m 7,8 km/h (2 Bft) 0 min 0 min
10.11.2018 12:27 21,7 C 10,2 C 10,8 C 82 % 21 % 1014 hPa 0,0 l/m 8,6 km/h (2 Bft) 0 min 0 min
10.11.2018 12:30 21,7 C 10,2 C 10,7 C 82 % 21 % 1014 hPa 0,0 l/m 8,6 km/h (2 Bft) 0 min 0 min
10.11.2018 12:33 21,7 C 10,2 C 10,7 C 82 % 21 % 1014 hPa 0,0 l/m 13,1 km/h (3 Bft) 0 min 0 min
10.11.2018 12:36 21,7 C 10,2 C 10,7 C 82 % 21 % 1014 hPa 0,0 l/m 9,1 km/h (2 Bft) 0 min 0 min
10.11.2018 12:39 21,7 C 10,2 C 10,8 C 82 % 19 % 1014 hPa 0,0 l/m 10,9 km/h (2 Bft) 0 min 0 min
10.11.2018 12:42 21,7 C 10,2 C 10,8 C 82 % 20 % 1014 hPa 0,0 l/m 8,9 km/h (2 Bft) 0 min 0 min
10.11.2018 12:45 21,6 C 10,4 C 10,8 C 82 % 21 % 1014 hPa 0,0 l/m 13,8 km/h (3 Bft) 0 min 0 min
10.11.2018 12:48 21,7 C 10,3 C 10,8 C 81 % 21 % 1014 hPa 0,0 l/m 12,1 km/h (2 Bft) 0 min 0 min
10.11.2018 12:51 21,7 C 10,4 C 10,8 C 81 % 20 % 1014 hPa 0,0 l/m 10,7 km/h (2 Bft) 0 min 0 min
10.11.2018 12:54 21,7 C 10,3 C 10,8 C 81 % 20 % 1014 hPa 0,0 l/m 10,6 km/h (2 Bft) 0 min 0 min
10.11.2018 12:57 21,7 C 10,3 C 10,9 C 81 % 21 % 1014 hPa 0,0 l/m 12,5 km/h (3 Bft) 0 min 0 min
10.11.2018 13:00 21,7 C 10,3 C 10,9 C 81 % 22 % 1013 hPa 0,0 l/m 12,5 km/h (3 Bft) 0 min 0 min
10.11.2018 13:03 21,7 C 10,3 C 10,9 C 81 % 22 % 1013 hPa 0,0 l/m 11,5 km/h (2 Bft) 0 min 0 min
10.11.2018 13:06 21,7 C 10,3 C 10,9 C 81 % 21 % 1013 hPa 0,0 l/m 10,7 km/h (2 Bft) 0 min 0 min
10.11.2018 13:09 21,7 C 10,3 C 10,9 C 81 % 21 % 1013 hPa 0,0 l/m 11,1 km/h (2 Bft) 0 min 0 min
10.11.2018 13:12 21,7 C 10,3 C 10,9 C 81 % 20 % 1013 hPa 0,0 l/m 11,1 km/h (2 Bft) 0 min 0 min
10.11.2018 13:15 21,8 C 10,4 C 10,9 C 82 % 20 % 1013 hPa 0,0 l/m 15,6 km/h (3 Bft) 0 min 0 min
10.11.2018 13:18 21,7 C 10,4 C 11,0 C 82 % 20 % 1013 hPa 0,0 l/m 11,1 km/h (2 Bft) 0 min 0 min
10.11.2018 13:21 21,8 C 10,4 C 11,0 C 82 % 20 % 1013 hPa 0,0 l/m 9,4 km/h (2 Bft) 0 min 0 min
10.11.2018 13:24 21,8 C 10,4 C 11,0 C 81 % 20 % 1013 hPa 0,0 l/m 16,2 km/h (3 Bft) 0 min 0 min
10.11.2018 13:27 21,8 C 10,4 C 10,9 C 81 % 21 % 1013 hPa 0,0 l/m 10,1 km/h (2 Bft) 0 min 0 min
10.11.2018 13:30 21,8 C 10,4 C 10,9 C 81 % 23 % 1013 hPa 0,0 l/m 12,2 km/h (2 Bft) 0 min 0 min
10.11.2018 13:33 21,8 C 10,4 C 11,0 C 81 % 20 % 1013 hPa 0,0 l/m 10,9 km/h (2 Bft) 0 min 0 min
10.11.2018 13:36 21,8 C 10,4 C 11,0 C 81 % 19 % 1013 hPa 0,0 l/m 10,3 km/h (2 Bft) 0 min 0 min
10.11.2018 13:39 21,8 C 10,4 C 11,0 C 81 % 19 % 1013 hPa 0,0 l/m 12,8 km/h (3 Bft) 0 min 0 min
10.11.2018 13:42 21,8 C 10,4 C 11,0 C 81 % 18 % 1013 hPa 0,0 l/m 12,8 km/h (3 Bft) 0 min 0 min
10.11.2018 13:45 21,7 C 10,4 C 11,0 C 81 % 17 % 1013 hPa 0,0 l/m 11,9 km/h (2 Bft) 0 min 0 min
10.11.2018 13:48 21,7 C 10,4 C 11,0 C 81 % 16 % 1013 hPa 0,0 l/m 7,8 km/h (2 Bft) 0 min 0 min
10.11.2018 13:51 21,7 C 10,4 C 11,0 C 81 % 18 % 1013 hPa 0,0 l/m 8,7 km/h (2 Bft) 0 min 0 min
10.11.2018 13:54 21,7 C 10,4 C 11,0 C 81 % 18 % 1013 hPa 0,0 l/m 11,5 km/h (2 Bft) 0 min 0 min
10.11.2018 13:57 21,7 C 10,4 C 11,0 C 81 % 18 % 1013 hPa 0,0 l/m 13,1 km/h (3 Bft) 0 min 0 min
10.11.2018 14:00 21,7 C 10,4 C 11,0 C 81 % 16 % 1013 hPa 0,0 l/m 13,1 km/h (3 Bft) 0 min 0 min
10.11.2018 14:03 21,7 C 10,3 C 11,0 C 81 % 15 % 1013 hPa 0,0 l/m 13,5 km/h (3 Bft) 0 min 0 min
10.11.2018 14:06 21,8 C 10,3 C 11,0 C 81 % 15 % 1013 hPa 0,0 l/m 9,6 km/h (2 Bft) 0 min 0 min
10.11.2018 14:09 21,7 C 10,3 C 11,1 C 81 % 15 % 1013 hPa 0,0 l/m 12,6 km/h (3 Bft) 0 min 0 min
10.11.2018 14:12 21,8 C 10,3 C 11,0 C 82 % 15 % 1013 hPa 0,0 l/m 9,2 km/h (2 Bft) 0 min 0 min
10.11.2018 14:15 21,8 C 10,3 C 11,1 C 81 % 16 % 1013 hPa 0,0 l/m 13,8 km/h (3 Bft) 0 min 0 min
10.11.2018 14:18 21,7 C 10,3 C 11,1 C 81 % 17 % 1013 hPa 0,0 l/m 13,8 km/h (3 Bft) 0 min 0 min
10.11.2018 14:21 21,7 C 10,3 C 11,1 C 81 % 17 % 1013 hPa 0,0 l/m 11,8 km/h (2 Bft) 0 min 0 min
10.11.2018 14:24 21,7 C 10,3 C 11,0 C 81 % 16 % 1013 hPa 0,0 l/m 12,0 km/h (2 Bft) 0 min 0 min
10.11.2018 14:27 21,6 C 10,3 C 11,0 C 81 % 19 % 1013 hPa 0,0 l/m 11,0 km/h (2 Bft) 0 min 0 min
10.11.2018 14:30 21,5 C 10,3 C 11,1 C 81 % 21 % 1013 hPa 0,0 l/m 15,4 km/h (3 Bft) 0 min 0 min
10.11.2018 14:33 21,5 C 10,3 C 11,0 C 81 % 18 % 1013 hPa 0,0 l/m 13,1 km/h (3 Bft) 0 min 0 min
10.11.2018 14:36 21,5 C 10,3 C 11,0 C 81 % 17 % 1013 hPa 0,0 l/m 13,6 km/h (3 Bft) 0 min 0 min
10.11.2018 14:39 21,5 C 10,3 C 11,0 C 81 % 16 % 1013 hPa 0,0 l/m 12,3 km/h (3 Bft) 0 min 0 min
10.11.2018 14:42 21,5 C 10,2 C 11,0 C 81 % 15 % 1013 hPa 0,0 l/m 15,9 km/h (3 Bft) 0 min 0 min
10.11.2018 14:45 21,6 C 10,3 C 11,1 C 81 % 14 % 1013 hPa 0,0 l/m 12,5 km/h (3 Bft) 0 min 0 min
10.11.2018 14:48 21,6 C 10,3 C 11,0 C 81 % 13 % 1013 hPa 0,0 l/m 9,9 km/h (2 Bft) 0 min 0 min
10.11.2018 14:51 21,6 C 10,3 C 11,0 C 81 % 12 % 1013 hPa 0,0 l/m 15,7 km/h (3 Bft) 0 min 0 min
10.11.2018 14:54 21,6 C 10,3 C 11,0 C 81 % 13 % 1013 hPa 0,0 l/m 18,1 km/h (3 Bft) 0 min 0 min
10.11.2018 14:57 21,6 C 10,3 C 11,0 C 81 % 13 % 1013 hPa 0,0 l/m 14,1 km/h (3 Bft) 0 min 0 min
10.11.2018 15:00 21,6 C 10,2 C 11,0 C 81 % 12 % 1013 hPa 0,0 l/m 14,1 km/h (3 Bft) 0 min 0 min
10.11.2018 15:03 21,6 C 10,3 C 11,0 C 82 % 12 % 1013 hPa 0,0 l/m 8,8 km/h (2 Bft) 0 min 0 min
10.11.2018 15:06 21,6 C 10,3 C 11,0 C 82 % 11 % 1013 hPa 0,0 l/m 11,0 km/h (2 Bft) 0 min 0 min
10.11.2018 15:09 21,2 C 10,3 C 11,0 C 82 % 10 % 1013 hPa 0,0 l/m 9,6 km/h (2 Bft) 0 min 0 min
10.11.2018 15:12 20,9 C 10,3 C 11,0 C 82 % 9 % 1013 hPa 0,0 l/m 11,6 km/h (2 Bft) 0 min 0 min
10.11.2018 15:15 20,7 C 10,3 C 11,1 C 82 % 10 % 1013 hPa 0,0 l/m 12,3 km/h (3 Bft) 0 min 0 min
10.11.2018 15:18 20,5 C 10,3 C 11,0 C 82 % 10 % 1013 hPa 0,0 l/m 12,3 km/h (3 Bft) 0 min 0 min
10.11.2018 15:21 20,3 C 10,3 C 11,0 C 82 % 11 % 1013 hPa 0,0 l/m 10,8 km/h (2 Bft) 0 min 0 min
10.11.2018 15:24 20,3 C 10,3 C 11,0 C 82 % 11 % 1013 hPa 0,0 l/m 9,0 km/h (2 Bft) 0 min 0 min
10.11.2018 15:27 20,2 C 10,2 C 11,0 C 81 % 10 % 1013 hPa 0,0 l/m 10,9 km/h (2 Bft) 0 min 0 min
10.11.2018 15:30 20,2 C 10,2 C 11,0 C 82 % 9 % 1013 hPa 0,0 l/m 8,1 km/h (2 Bft) 0 min 0 min
10.11.2018 15:33 20,1 C 10,2 C 11,0 C 82 % 8 % 1013 hPa 0,0 l/m 10,5 km/h (2 Bft) 0 min 0 min
10.11.2018 15:36 20,2 C 10,2 C 11,0 C 82 % 8 % 1013 hPa 0,0 l/m 10,5 km/h (2 Bft) 0 min 0 min
10.11.2018 15:39 20,3 C 10,2 C 11,0 C 82 % 7 % 1013 hPa 0,0 l/m 9,5 km/h (2 Bft) 0 min 0 min
10.11.2018 15:42 20,4 C 10,1 C 11,0 C 82 % 7 % 1013 hPa 0,0 l/m 6,5 km/h (2 Bft) 0 min 0 min
10.11.2018 15:45 20,6 C 10,1 C 11,0 C 83 % 6 % 1013 hPa 0,0 l/m 11,2 km/h (2 Bft) 0 min 0 min
10.11.2018 15:48 20,8 C 10,1 C 10,9 C 82 % 6 % 1013 hPa 0,0 l/m 14,1 km/h (3 Bft) 0 min 0 min
10.11.2018 15:51 20,9 C 10,0 C 10,9 C 82 % 6 % 1013 hPa 0,0 l/m 12,1 km/h (2 Bft) 0 min 0 min
10.11.2018 15:54 21,0 C 10,0 C 10,9 C 82 % 5 % 1013 hPa 0,0 l/m 13,3 km/h (3 Bft) 0 min 0 min
10.11.2018 15:57 21,0 C 10,0 C 10,9 C 82 % 5 % 1013 hPa 0,0 l/m 13,9 km/h (3 Bft) 0 min 0 min
10.11.2018 16:00 21,1 C 9,9 C 10,9 C 82 % 4 % 1013 hPa 0,0 l/m 10,6 km/h (2 Bft) 0 min 0 min
10.11.2018 16:03 21,1 C 9,9 C 10,9 C 82 % 4 % 1013 hPa 0,0 l/m 18,5 km/h (3 Bft) 0 min 0 min
10.11.2018 16:06 21,2 C 9,8 C 10,9 C 82 % 4 % 1013 hPa 0,0 l/m 14,7 km/h (3 Bft) 0 min 0 min
10.11.2018 16:09 21,2 C 9,8 C 10,9 C 82 % 4 % 1013 hPa 0,0 l/m 15,1 km/h (3 Bft) 0 min 0 min
10.11.2018 16:12 21,2 C 9,8 C 10,9 C 82 % 3 % 1013 hPa 0,0 l/m 10,5 km/h (2 Bft) 0 min 0 min
10.11.2018 16:15 21,2 C 9,8 C 10,9 C 83 % 3 % 1013 hPa 0,0 l/m 11,3 km/h (2 Bft) 0 min 0 min
10.11.2018 16:18 21,2 C 9,8 C 10,9 C 83 % 3 % 1013 hPa 0,0 l/m 8,7 km/h (2 Bft) 0 min 0 min
10.11.2018 16:21 21,2 C 9,8 C 10,8 C 83 % 2 % 1013 hPa 0,0 l/m 14,9 km/h (3 Bft) 0 min 0 min
10.11.2018 16:24 21,2 C 9,8 C 10,8 C 83 % 2 % 1013 hPa 0,0 l/m 14,9 km/h (3 Bft) 0 min 0 min
10.11.2018 16:27 21,2 C 9,7 C 10,8 C 83 % 2 % 1013 hPa 0,0 l/m 13,8 km/h (3 Bft) 0 min 0 min
10.11.2018 16:30 21,3 C 9,7 C 10,8 C 83 % 2 % 1013 hPa 0,0 l/m 9,2 km/h (2 Bft) 0 min 0 min
10.11.2018 16:33 21,3 C 9,7 C 10,8 C 83 % 1 % 1013 hPa 0,0 l/m 10,5 km/h (2 Bft) 0 min 0 min
10.11.2018 16:36 21,3 C 9,7 C 10,8 C 84 % 1 % 1013 hPa 0,0 l/m 9,0 km/h (2 Bft) 0 min 0 min
10.11.2018 16:39 21,3 C 9,6 C 10,8 C 84 % 1 % 1013 hPa 0,0 l/m 12,9 km/h (3 Bft) 0 min 0 min
10.11.2018 16:42 21,3 C 9,6 C 10,8 C 84 % 1 % 1013 hPa 0,0 l/m 8,4 km/h (2 Bft) 0 min 0 min
10.11.2018 16:45 21,4 C 9,6 C 10,8 C 84 % 1 % 1013 hPa 0,0 l/m 8,4 km/h (2 Bft) 0 min 0 min
10.11.2018 16:48 21,4 C 9,6 C 10,8 C 84 % 1 % 1013 hPa 0,0 l/m 9,7 km/h (2 Bft) 0 min 0 min
10.11.2018 16:51 21,3 C 9,6 C 10,8 C 84 % 1 % 1013 hPa 0,0 l/m 7,4 km/h (2 Bft) 0 min 0 min
10.11.2018 16:54 21,4 C 9,6 C 10,8 C 84 % 1 % 1013 hPa 0,0 l/m 5,8 km/h (2 Bft) 0 min 0 min
10.11.2018 16:57 21,4 C 9,6 C 10,7 C 84 % 1 % 1013 hPa 0,0 l/m 8,1 km/h (2 Bft) 0 min 0 min
10.11.2018 17:00 21,4 C 9,6 C 10,7 C 84 % 1 % 1013 hPa 0,0 l/m 12,1 km/h (2 Bft) 0 min 0 min
10.11.2018 17:03 21,4 C 9,6 C 10,8 C 84 % 1 % 1013 hPa 0,0 l/m 9,3 km/h (2 Bft) 0 min 0 min
10.11.2018 17:06 21,4 C 9,6 C 10,7 C 84 % 1 % 1013 hPa 0,0 l/m 10,5 km/h (2 Bft) 0 min 0 min
10.11.2018 17:09 21,4 C 9,6 C 10,7 C 84 % 1 % 1013 hPa 0,0 l/m 11,1 km/h (2 Bft) 0 min 0 min
10.11.2018 17:12 21,4 C 9,6 C 10,7 C 84 % 1 % 1013 hPa 0,0 l/m 8,7 km/h (2 Bft) 0 min 0 min
10.11.2018 17:15 21,4 C 9,6 C 10,7 C 84 % 1 % 1013 hPa 0,0 l/m 10,6 km/h (2 Bft) 0 min 0 min
10.11.2018 17:18 21,4 C 9,6 C 10,7 C 85 % 1 % 1013 hPa 0,0 l/m 5,3 km/h (1 Bft) 0 min 0 min
10.11.2018 17:21 21,4 C 9,6 C 10,7 C 85 % 1 % 1013 hPa 0,0 l/m 5,2 km/h (1 Bft) 0 min 0 min
10.11.2018 17:24 21,4 C 9,6 C 10,7 C 85 % 1 % 1013 hPa 0,0 l/m 5,5 km/h (1 Bft) 0 min 0 min
10.11.2018 17:27 21,4 C 9,6 C 10,7 C 85 % 1 % 1013 hPa 0,0 l/m 8,9 km/h (2 Bft) 0 min 0 min
10.11.2018 17:30 21,4 C 9,6 C 10,7 C 85 % 1 % 1013 hPa 0,0 l/m 8,9 km/h (2 Bft) 0 min 0 min
10.11.2018 17:33 21,4 C 9,6 C 10,7 C 85 % 1 % 1013 hPa 0,0 l/m 10,1 km/h (2 Bft) 0 min 0 min
10.11.2018 17:36 21,4 C 9,6 C 10,7 C 85 % 1 % 1013 hPa 0,0 l/m 7,9 km/h (2 Bft) 0 min 0 min
10.11.2018 17:39 21,5 C 9,6 C 10,7 C 85 % 1 % 1013 hPa 0,0 l/m 9,6 km/h (2 Bft) 0 min 0 min
10.11.2018 17:42 21,5 C 9,6 C 10,6 C 84 % 1 % 1013 hPa 0,0 l/m 21,3 km/h (4 Bft) 0 min 0 min
10.11.2018 17:45 21,5 C 9,5 C 10,7 C 85 % 1 % 1013 hPa 0,0 l/m 13,2 km/h (3 Bft) 0 min 0 min
10.11.2018 17:48 21,6 C 9,5 C 10,6 C 85 % 1 % 1013 hPa 0,0 l/m 9,3 km/h (2 Bft) 0 min 0 min
10.11.2018 17:51 21,6 C 9,5 C 10,6 C 85 % 1 % 1013 hPa 0,0 l/m 12,0 km/h (2 Bft) 0 min 0 min
10.11.2018 17:54 21,6 C 9,5 C 10,6 C 84 % 1 % 1013 hPa 0,0 l/m 8,8 km/h (2 Bft) 0 min 0 min
10.11.2018 17:57 21,7 C 9,4 C 10,6 C 84 % 1 % 1013 hPa 0,0 l/m 8,8 km/h (2 Bft) 0 min 0 min
10.11.2018 18:00 21,8 C 9,4 C 10,6 C 84 % 1 % 1013 hPa 0,0 l/m 10,3 km/h (2 Bft) 0 min 0 min
10.11.2018 18:03 22,0 C 9,4 C 10,6 C 84 % 1 % 1013 hPa 0,0 l/m 10,2 km/h (2 Bft) 0 min 0 min
10.11.2018 18:06 22,0 C 9,3 C 10,5 C 84 % 1 % 1013 hPa 0,0 l/m 10,6 km/h (2 Bft) 0 min 0 min
10.11.2018 18:09 22,1 C 9,3 C 10,4 C 84 % 1 % 1013 hPa 0,0 l/m 14,0 km/h (3 Bft) 0 min 0 min
10.11.2018 18:12 22,2 C 9,3 C 10,4 C 84 % 1 % 1013 hPa 0,0 l/m 20,4 km/h (4 Bft) 0 min 0 min
10.11.2018 18:15 22,3 C 9,2 C 10,4 C 84 % 1 % 1013 hPa 0,0 l/m 13,4 km/h (3 Bft) 0 min 0 min
10.11.2018 18:18 22,3 C 9,2 C 10,4 C 84 % 1 % 1014 hPa 0,0 l/m 17,6 km/h (3 Bft) 0 min 0 min
10.11.2018 18:21 22,2 C 9,2 C 10,4 C 84 % 1 % 1014 hPa 0,0 l/m 16,5 km/h (3 Bft) 0 min 0 min
10.11.2018 18:24 22,1 C 9,2 C 10,5 C 84 % 1 % 1014 hPa 0,0 l/m 13,4 km/h (3 Bft) 0 min 0 min
10.11.2018 18:27 22,0 C 9,2 C 10,5 C 84 % 1 % 1014 hPa 0,0 l/m 14,1 km/h (3 Bft) 0 min 0 min
10.11.2018 18:30 22,2 C 9,2 C 10,4 C 84 % 1 % 1014 hPa 0,0 l/m 10,5 km/h (2 Bft) 0 min 0 min
10.11.2018 18:33 22,2 C 9,2 C 10,4 C 85 % 1 % 1014 hPa 0,0 l/m 10,5 km/h (2 Bft) 0 min 0 min
10.11.2018 18:36 22,3 C 9,2 C 10,4 C 85 % 1 % 1014 hPa 0,0 l/m 5,6 km/h (1 Bft) 0 min 0 min
10.11.2018 18:39 22,3 C 9,2 C 10,4 C 85 % 1 % 1013 hPa 0,0 l/m 13,5 km/h (3 Bft) 0 min 0 min
10.11.2018 18:42 22,3 C 9,2 C 10,4 C 85 % 1 % 1013 hPa 0,0 l/m 12,3 km/h (3 Bft) 0 min 0 min
10.11.2018 18:45 22,3 C 9,2 C 10,4 C 85 % 1 % 1013 hPa 0,0 l/m 8,1 km/h (2 Bft) 0 min 0 min
10.11.2018 18:48 22,4 C 9,2 C 10,4 C 85 % 1 % 1013 hPa 0,0 l/m 12,6 km/h (3 Bft) 0 min 0 min
10.11.2018 18:51 22,4 C 9,2 C 10,4 C 85 % 1 % 1013 hPa 0,0 l/m 16,5 km/h (3 Bft) 0 min 0 min
10.11.2018 18:54 22,4 C 9,2 C 10,4 C 85 % 1 % 1013 hPa 0,0 l/m 15,2 km/h (3 Bft) 0 min 0 min
10.11.2018 18:57 22,4 C 9,2 C 10,3 C 85 % 1 % 1013 hPa 0,0 l/m 15,8 km/h (3 Bft) 0 min 0 min
10.11.2018 19:00 22,3 C 9,2 C 10,3 C 85 % 1 % 1013 hPa 0,0 l/m 17,9 km/h (3 Bft) 0 min 0 min
10.11.2018 19:03 22,2 C 9,2 C 10,3 C 85 % 1 % 1013 hPa 0,0 l/m 14,2 km/h (3 Bft) 0 min 0 min
10.11.2018 19:06 22,2 C 9,2 C 10,3 C 85 % 1 % 1013 hPa 0,0 l/m 9,9 km/h (2 Bft) 0 min 0 min
10.11.2018 19:09 22,1 C 9,2 C 10,3 C 85 % 1 % 1013 hPa 0,0 l/m 15,8 km/h (3 Bft) 0 min 0 min
10.11.2018 19:12 22,2 C 9,2 C 10,3 C 85 % 1 % 1013 hPa 0,0 l/m 11,8 km/h (2 Bft) 0 min 0 min
10.11.2018 19:15 22,2 C 9,1 C 10,3 C 85 % 1 % 1013 hPa 0,0 l/m 13,1 km/h (3 Bft) 0 min 0 min
10.11.2018 19:18 22,4 C 9,1 C 10,3 C 85 % 1 % 1014 hPa 0,0 l/m 21,0 km/h (4 Bft) 0 min 0 min
10.11.2018 19:21 22,4 C 9,1 C 10,3 C 85 % 1 % 1014 hPa 0,0 l/m 21,8 km/h (4 Bft) 0 min 0 min
10.11.2018 19:24 22,4 C 9,1 C 10,3 C 85 % 1 % 1014 hPa 0,0 l/m 17,0 km/h (3 Bft) 0 min 0 min
10.11.2018 19:27 22,5 C 9,1 C 10,3 C 85 % 1 % 1013 hPa 0,0 l/m 11,8 km/h (2 Bft) 0 min 0 min
10.11.2018 19:30 22,5 C 9,1 C 10,3 C 85 % 1 % 1013 hPa 0,0 l/m 8,3 km/h (2 Bft) 0 min 0 min
10.11.2018 19:33 22,5 C 9,1 C 10,3 C 85 % 1 % 1014 hPa 0,0 l/m 8,3 km/h (2 Bft) 0 min 0 min
10.11.2018 19:36 22,5 C 9,0 C 10,3 C 85 % 1 % 1013 hPa 0,0 l/m 9,0 km/h (2 Bft) 0 min 0 min
10.11.2018 19:39 22,5 C 9,0 C 10,3 C 86 % 2 % 1014 hPa 0,0 l/m 7,9 km/h (2 Bft) 0 min 0 min
10.11.2018 19:42 22,5 C 9,0 C 10,2 C 86 % 2 % 1014 hPa 0,0 l/m 9,0 km/h (2 Bft) 0 min 0 min
10.11.2018 19:45 22,5 C 8,9 C 10,2 C 86 % 2 % 1013 hPa 0,0 l/m 9,0 km/h (2 Bft) 0 min 0 min
10.11.2018 19:48 22,5 C 8,9 C 10,2 C 86 % 2 % 1013 hPa 0,0 l/m 16,8 km/h (3 Bft) 0 min 0 min
10.11.2018 19:51 22,5 C 8,8 C 10,1 C 86 % 2 % 1013 hPa 0,0 l/m 11,8 km/h (2 Bft) 0 min 0 min
10.11.2018 19:54 22,6 C 8,8 C 10,1 C 86 % 2 % 1013 hPa 0,0 l/m 15,5 km/h (3 Bft) 0 min 0 min
10.11.2018 19:57 22,6 C 8,8 C 10,1 C 86 % 2 % 1013 hPa 0,0 l/m 13,8 km/h (3 Bft) 0 min 0 min
10.11.2018 20:00 22,7 C 8,8 C 10,1 C 86 % 2 % 1013 hPa 0,0 l/m 15,7 km/h (3 Bft) 0 min 0 min
10.11.2018 20:03 22,7 C 8,8 C 10,0 C 86 % 2 % 1013 hPa 0,0 l/m 11,8 km/h (2 Bft) 0 min 0 min
10.11.2018 20:06 22,8 C 8,7 C 10,0 C 87 % 2 % 1013 hPa 0,0 l/m 12,7 km/h (3 Bft) 0 min 0 min
10.11.2018 20:09 22,7 C 8,7 C 10,1 C 87 % 2 % 1014 hPa 0,0 l/m 15,0 km/h (3 Bft) 0 min 0 min
10.11.2018 20:12 22,8 C 8,7 C 10,1 C 87 % 2 % 1014 hPa 0,0 l/m 9,9 km/h (2 Bft) 0 min 0 min
10.11.2018 20:15 22,8 C 8,7 C 10,0 C 87 % 2 % 1014 hPa 0,0 l/m 9,9 km/h (2 Bft) 0 min 0 min
10.11.2018 20:18 22,7 C 8,7 C 10,1 C 87 % 2 % 1014 hPa 0,0 l/m 13,8 km/h (3 Bft) 0 min 0 min
10.11.2018 20:21 22,7 C 8,7 C 10,0 C 87 % 2 % 1014 hPa 0,0 l/m 11,4 km/h (2 Bft) 0 min 0 min
10.11.2018 20:24 22,7 C 8,6 C 10,0 C 87 % 2 % 1014 hPa 0,0 l/m 15,1 km/h (3 Bft) 0 min 0 min
10.11.2018 20:27 22,6 C 8,6 C 10,0 C 87 % 2 % 1014 hPa 0,0 l/m 17,0 km/h (3 Bft) 0 min 0 min
10.11.2018 20:30 22,6 C 8,6 C 10,0 C 87 % 2 % 1014 hPa 0,0 l/m 18,1 km/h (3 Bft) 0 min 0 min
10.11.2018 20:33 22,6 C 8,6 C 10,0 C 87 % 2 % 1014 hPa 0,0 l/m 18,1 km/h (3 Bft) 0 min 0 min
10.11.2018 20:36 22,7 C 8,6 C 10,0 C 87 % 2 % 1014 hPa 0,0 l/m 17,7 km/h (3 Bft) 0 min 0 min
10.11.2018 20:39 22,8 C 8,6 C 10,0 C 87 % 2 % 1014 hPa 0,0 l/m 14,6 km/h (3 Bft) 0 min 0 min
10.11.2018 20:42 22,8 C 8,6 C 10,0 C 87 % 2 % 1014 hPa 0,0 l/m 13,9 km/h (3 Bft) 0 min 0 min
10.11.2018 20:45 22,8 C 8,6 C 10,0 C 87 % 2 % 1014 hPa 0,0 l/m 10,5 km/h (2 Bft) 0 min 0 min
10.11.2018 20:48 22,8 C 8,6 C 10,0 C 87 % 2 % 1014 hPa 0,0 l/m 12,1 km/h (2 Bft) 0 min 0 min
10.11.2018 20:51 22,8 C 8,6 C 10,0 C 87 % 2 % 1014 hPa 0,0 l/m 14,8 km/h (3 Bft) 0 min 0 min
10.11.2018 20:54 22,8 C 8,7 C 10,0 C 87 % 2 % 1014 hPa 0,0 l/m 13,0 km/h (3 Bft) 0 min 0 min
10.11.2018 20:57 22,8 C 8,7 C 10,0 C 87 % 2 % 1014 hPa 0,0 l/m 14,2 km/h (3 Bft) 0 min 0 min
10.11.2018 21:00 22,8 C 8,7 C 10,0 C 87 % 2 % 1014 hPa 0,0 l/m 13,6 km/h (3 Bft) 0 min 0 min
10.11.2018 21:03 22,8 C 8,7 C 10,0 C 87 % 2 % 1014 hPa 0,0 l/m 13,5 km/h (3 Bft) 0 min 0 min
10.11.2018 21:06 22,8 C 8,7 C 10,0 C 87 % 2 % 1014 hPa 0,0 l/m 13,6 km/h (3 Bft) 0 min 0 min
10.11.2018 21:09 22,8 C 8,7 C 10,0 C 87 % 2 % 1014 hPa 0,0 l/m 11,0 km/h (2 Bft) 0 min 0 min
10.11.2018 21:12 22,8 C 8,7 C 10,0 C 87 % 2 % 1014 hPa 0,0 l/m 11,6 km/h (2 Bft) 0 min 0 min
10.11.2018 21:15 22,5 C 8,7 C 10,0 C 87 % 2 % 1014 hPa 0,0 l/m 5,3 km/h (1 Bft) 0 min 0 min
10.11.2018 21:18 22,4 C 8,8 C 10,0 C 87 % 2 % 1014 hPa 0,0 l/m 10,5 km/h (2 Bft) 0 min 0 min
10.11.2018 21:21 22,4 C 8,7 C 10,0 C 86 % 2 % 1013 hPa 0,0 l/m 15,5 km/h (3 Bft) 0 min 0 min
10.11.2018 21:24 22,4 C 8,7 C 10,0 C 86 % 2 % 1013 hPa 0,0 l/m 21,0 km/h (4 Bft) 0 min 0 min
10.11.2018 21:27 22,6 C 8,7 C 10,0 C 86 % 2 % 1014 hPa 0,0 l/m 14,1 km/h (3 Bft) 0 min 0 min
10.11.2018 21:30 22,6 C 8,8 C 10,0 C 86 % 2 % 1014 hPa 0,0 l/m 17,3 km/h (3 Bft) 0 min 0 min
10.11.2018 21:33 22,6 C 8,8 C 10,0 C 86 % 2 % 1014 hPa 0,0 l/m 13,5 km/h (3 Bft) 0 min 0 min
10.11.2018 21:36 22,7 C 8,8 C 10,0 C 86 % 2 % 1014 hPa 0,0 l/m 13,9 km/h (3 Bft) 0 min 0 min
10.11.2018 21:39 22,6 C 8,8 C 10,0 C 86 % 2 % 1013 hPa 0,0 l/m 11,9 km/h (2 Bft) 0 min 0 min
10.11.2018 21:42 22,7 C 8,8 C 10,0 C 86 % 2 % 1013 hPa 0,0 l/m 7,4 km/h (2 Bft) 0 min 0 min
10.11.2018 21:45 22,6 C 8,8 C 10,0 C 86 % 2 % 1013 hPa 0,0 l/m 12,4 km/h (3 Bft) 0 min 0 min
10.11.2018 21:48 22,5 C 8,8 C 10,0 C 86 % 2 % 1013 hPa 0,0 l/m 15,7 km/h (3 Bft) 0 min 0 min
10.11.2018 21:51 22,4 C 8,8 C 10,0 C 85 % 2 % 1014 hPa 0,0 l/m 15,2 km/h (3 Bft) 0 min 0 min
10.11.2018 21:54 22,3 C 8,8 C 9,9 C 85 % 2 % 1013 hPa 0,0 l/m 16,2 km/h (3 Bft) 0 min 0 min
10.11.2018 21:57 22,3 C 8,8 C 10,0 C 85 % 2 % 1013 hPa 0,0 l/m 16,0 km/h (3 Bft) 0 min 0 min
10.11.2018 22:00 22,4 C 8,8 C 10,0 C 85 % 2 % 1013 hPa 0,0 l/m 16,0 km/h (3 Bft) 0 min 0 min
10.11.2018 22:03 22,4 C 8,8 C 10,0 C 85 % 2 % 1013 hPa 0,0 l/m 12,5 km/h (3 Bft) 0 min 0 min
10.11.2018 22:06 22,6 C 8,8 C 10,0 C 85 % 2 % 1013 hPa 0,0 l/m 16,0 km/h (3 Bft) 0 min 0 min
10.11.2018 22:09 22,6 C 8,8 C 10,0 C 85 % 2 % 1013 hPa 0,0 l/m 16,0 km/h (3 Bft) 0 min 0 min
10.11.2018 22:12 22,7 C 8,9 C 10,0 C 85 % 2 % 1013 hPa 0,0 l/m 13,8 km/h (3 Bft) 0 min 0 min
10.11.2018 22:15 22,8 C 8,9 C 10,0 C 85 % 2 % 1013 hPa 0,0 l/m 11,0 km/h (2 Bft) 0 min 0 min
10.11.2018 22:18 22,8 C 8,8 C 10,0 C 85 % 2 % 1013 hPa 0,0 l/m 20,2 km/h (4 Bft) 0 min 0 min
10.11.2018 22:21 22,8 C 8,8 C 10,0 C 85 % 2 % 1013 hPa 0,0 l/m 18,0 km/h (3 Bft) 0 min 0 min
10.11.2018 22:24 22,8 C 8,9 C 10,0 C 85 % 2 % 1013 hPa 0,0 l/m 13,0 km/h (3 Bft) 0 min 0 min
10.11.2018 22:27 22,8 C 8,9 C 10,0 C 85 % 2 % 1013 hPa 0,0 l/m 12,5 km/h (3 Bft) 0 min 0 min
10.11.2018 22:30 22,8 C 8,9 C 10,0 C 85 % 2 % 1013 hPa 0,0 l/m 11,7 km/h (2 Bft) 0 min 0 min
10.11.2018 22:33 22,8 C 8,8 C 10,0 C 85 % 2 % 1013 hPa 0,0 l/m 10,1 km/h (2 Bft) 0 min 0 min
10.11.2018 22:36 22,8 C 8,8 C 10,0 C 85 % 2 % 1013 hPa 0,0 l/m 8,9 km/h (2 Bft) 0 min 0 min
10.11.2018 22:39 22,7 C 8,8 C 9,9 C 85 % 2 % 1013 hPa 0,0 l/m 10,0 km/h (2 Bft) 0 min 0 min
10.11.2018 22:42 22,7 C 8,9 C 10,0 C 85 % 2 % 1013 hPa 0,0 l/m 10,5 km/h (2 Bft) 0 min 0 min
10.11.2018 22:45 22,7 C 8,8 C 10,0 C 85 % 2 % 1013 hPa 0,0 l/m 8,0 km/h (2 Bft) 0 min 0 min
10.11.2018 22:48 22,7 C 8,8 C 10,0 C 85 % 2 % 1013 hPa 0,0 l/m 10,1 km/h (2 Bft) 0 min 0 min
10.11.2018 22:51 22,7 C 8,9 C 10,0 C 85 % 2 % 1014 hPa 0,0 l/m 9,8 km/h (2 Bft) 0 min 0 min
10.11.2018 22:54 22,7 C 8,9 C 10,0 C 85 % 2 % 1014 hPa 0,0 l/m 11,1 km/h (2 Bft) 0 min 0 min
10.11.2018 22:57 22,7 C 8,9 C 10,0 C 85 % 2 % 1014 hPa 0,0 l/m 14,7 km/h (3 Bft) 0 min 0 min
10.11.2018 23:00 22,7 C 8,9 C 9,9 C 85 % 2 % 1014 hPa 0,0 l/m 20,0 km/h (4 Bft) 0 min 0 min
10.11.2018 23:03 22,7 C 8,9 C 10,0 C 85 % 2 % 1014 hPa 0,0 l/m 11,3 km/h (2 Bft) 0 min 0 min
10.11.2018 23:06 22,7 C 8,9 C 10,0 C 85 % 2 % 1014 hPa 0,0 l/m 12,7 km/h (3 Bft) 0 min 0 min
10.11.2018 23:09 22,7 C 8,9 C 10,0 C 85 % 2 % 1014 hPa 0,0 l/m 8,9 km/h (2 Bft) 0 min 0 min
10.11.2018 23:12 22,7 C 8,9 C 10,0 C 85 % 2 % 1014 hPa 0,0 l/m 6,7 km/h (2 Bft) 0 min 0 min
10.11.2018 23:15 22,7 C 8,9 C 10,0 C 85 % 2 % 1014 hPa 0,0 l/m 5,4 km/h (1 Bft) 0 min 0 min
10.11.2018 23:18 22,7 C 8,9 C 9,9 C 85 % 2 % 1014 hPa 0,0 l/m 8,2 km/h (2 Bft) 0 min 0 min
10.11.2018 23:21 22,7 C 8,9 C 10,0 C 85 % 2 % 1014 hPa 0,0 l/m 11,6 km/h (2 Bft) 0 min 0 min
10.11.2018 23:24 22,6 C 8,9 C 10,0 C 85 % 2 % 1014 hPa 0,0 l/m 7,8 km/h (2 Bft) 0 min 0 min
10.11.2018 23:27 22,6 C 8,9 C 10,0 C 85 % 2 % 1014 hPa 0,0 l/m 5,9 km/h (2 Bft) 0 min 0 min
10.11.2018 23:30 22,6 C 8,9 C 10,0 C 85 % 2 % 1014 hPa 0,0 l/m 5,7 km/h (1 Bft) 0 min 0 min
10.11.2018 23:33 22,6 C 8,9 C 10,0 C 85 % 2 % 1014 hPa 0,0 l/m 6,7 km/h (2 Bft) 0 min 0 min
10.11.2018 23:36 22,6 C 8,9 C 10,0 C 85 % 2 % 1014 hPa 0,0 l/m 7,6 km/h (2 Bft) 0 min 0 min
10.11.2018 23:39 22,6 C 8,9 C 10,0 C 85 % 2 % 1014 hPa 0,0 l/m 11,3 km/h (2 Bft) 0 min 0 min
10.11.2018 23:42 22,6 C 9,0 C 9,9 C 85 % 2 % 1014 hPa 0,0 l/m 11,1 km/h (2 Bft) 0 min 0 min
10.11.2018 23:45 22,6 C 9,0 C 9,9 C 85 % 2 % 1014 hPa 0,0 l/m 11,1 km/h (2 Bft) 0 min 0 min
10.11.2018 23:48 22,6 C 9,0 C 9,9 C 85 % 2 % 1014 hPa 0,0 l/m 14,8 km/h (3 Bft) 0 min 0 min
10.11.2018 23:51 22,6 C 9,0 C 10,0 C 85 % 2 % 1014 hPa 0,0 l/m 10,1 km/h (2 Bft) 0 min 0 min
10.11.2018 23:54 22,6 C 9,0 C 10,0 C 85 % 2 % 1014 hPa 0,0 l/m 7,0 km/h (2 Bft) 0 min 0 min
10.11.2018 23:57 22,6 C 9,0 C 9,9 C 85 % 2 % 1014 hPa 0,0 l/m 7,5 km/h (2 Bft) 0 min 0 min
_ Min-Zeit 15:33 20:24 06:54 12:48 - 13:00 - 05:36 - -
Minimum _ 20,1 C 8,6 C -10,0 C 81 % - 1013 hPa - 1,2 km/h (1 Bft) - -
_ Max-Zeit 20:06 12:45 14:09 01:48 13:30 00:00 00:00 19:21 00:00 00:00
Maximum _ 22,8 C 10,4 C 11,1 C 87 % 23 % 1017 hPa 0,0 l/m 21,8 km/h
S-SO (4 Bft)
0 min 0 min
Durchschnitt _ 21,8 C 9,3 C 10,1 C 85 % #0 min. 1014 hPa #0,0 l/m 9,7 km/h (2 Bft) #0 min. #0 min.